Wind From: 10-12-2017 19:04 Until: 11-12-2017 16:00 warning for: Wind Level: Orange info button

Power and phone distribution networks may be disrupted for relatively long periods., Roofs and chimneys can be damaged. , Tree branches may break. , Vehicles can be deported. , Traffic may be disrupted, particularly on secondary roads in forest areas. Limit your trips. , Limit your speed in highway driving, especially if you drive a vehicle or hitch sensitive to wind. , Do not go for walks in forests or along the coast., In town, be vigilant against possible falling objects., Do not work on roofs and do not touch any electrical line fallen on the ground., Store or secure sensitive objects to wind or likely to be damaged., Always install power generators outside buildings. 


Meteo18 Weather Cam more information Meteo18 Weather Cam


Thunder radar more information blitzortung!


Rain radar more information rain snow radar


Visit our other weather sites:

Template documentation
and downloads

And another site



Weather Underground History page Text

Daily Summary for June 28, 2017 Units:  Metric    English   Both
« Previous Day
Next Day »
Daily Weekly Monthly Yearly Custom
  High: Low: Average:
Temperature: 22.8 °C 15.4 °C 18.4 °C
Dew Point: 16.4 °C 12.3 °C 14.4 °C
Humidity: 93 % 54 % 78 %
Wind Speed: 30.6 km/h 1.6 km/h 10.3 km/h
Wind Gust: 40.2 km/h - -
Wind:- - SW
Pressure: 1005.0 hPa 998.9 hPa -
Precipitation: 1.3 mm    
Historical Graphs
 
 
Tabular Data for June 28, 2017
Time Temperature Dew Point Pressure Wind Wind Speed Wind Gust Humidity Rainfall Rate (Hourly)
00:02 18.3 °C 15.2 °C 1004.6 hPa SW 17.7 km/h 19.3 km/h 82 % 0.0 mm
00:12 18.2 °C 14.9 °C 1005.0 hPa SW 14.5 km/h 19.3 km/h 81 % 0.0 mm
00:17 18.2 °C 14.1 °C 1004.6 hPa WSW 8.0 km/h 19.3 km/h 77 % 0.0 mm
00:22 18.2 °C 13.9 °C 1004.6 hPa WSW 11.3 km/h 19.3 km/h 76 % 0.0 mm
00:32 18.2 °C 13.9 °C 1004.3 hPa SW 11.3 km/h 25.7 km/h 76 % 0.0 mm
00:37 18.1 °C 13.8 °C 1004.3 hPa SW 14.5 km/h 22.5 km/h 76 % 0.0 mm
00:42 18.1 °C 13.8 °C 1004.3 hPa SSW 17.7 km/h 22.5 km/h 76 % 0.0 mm
00:47 18.1 °C 14.0 °C 1004.3 hPa West 6.4 km/h 22.5 km/h 77 % 0.0 mm
00:52 18.0 °C 13.9 °C 1004.3 hPa SW 4.8 km/h 22.5 km/h 77 % 0.0 mm
00:57 17.9 °C 14.0 °C 1003.9 hPa SW 6.4 km/h 19.3 km/h 78 % 0.0 mm
01:02 17.8 °C 14.1 °C 1003.9 hPa WSW 3.2 km/h 19.3 km/h 79 % 0.0 mm
01:12 17.7 °C 14.2 °C 1003.9 hPa WSW 8.0 km/h 16.1 km/h 80 % 0.0 mm
01:17 17.7 °C 14.2 °C 1003.9 hPa SSW 4.8 km/h 11.3 km/h 80 % 0.0 mm
01:22 17.7 °C 14.2 °C 1003.9 hPa WSW 4.8 km/h 12.9 km/h 80 % 0.0 mm
01:32 17.7 °C 14.2 °C 1003.9 hPa SW 9.7 km/h 20.9 km/h 80 % 0.0 mm
01:37 17.6 °C 14.1 °C 1003.9 hPa West 14.5 km/h 24.1 km/h 80 % 0.0 mm
01:42 17.6 °C 14.3 °C 1003.6 hPa WSW 12.9 km/h 24.1 km/h 81 % 0.0 mm
01:47 17.6 °C 14.3 °C 1003.6 hPa SW 8.0 km/h 24.1 km/h 81 % 0.0 mm
01:52 17.6 °C 14.5 °C 1003.6 hPa SW 4.8 km/h 22.5 km/h 82 % 0.0 mm
01:57 17.5 °C 14.4 °C 1003.6 hPa SW 4.8 km/h 22.5 km/h 82 % 0.0 mm
02:02 17.4 °C 14.3 °C 1003.6 hPa WSW 6.4 km/h 22.5 km/h 82 % 0.0 mm
02:12 17.4 °C 14.5 °C 1003.6 hPa WSW 6.4 km/h 20.9 km/h 83 % 0.0 mm
02:17 17.3 °C 14.4 °C 1003.9 hPa WSW 6.4 km/h 19.3 km/h 83 % 0.0 mm
02:22 17.3 °C 14.6 °C 1003.6 hPa West 4.8 km/h 19.3 km/h 84 % 0.0 mm
02:27 17.3 °C 14.6 °C 1003.6 hPa SW 14.5 km/h 20.9 km/h 84 % 0.0 mm
02:32 17.3 °C 14.6 °C 1003.6 hPa SW 4.8 km/h 20.9 km/h 84 % 0.0 mm
02:37 17.3 °C 14.6 °C 1003.6 hPa SW 8.0 km/h 20.9 km/h 84 % 0.0 mm
02:42 17.2 °C 14.5 °C 1003.6 hPa SW 14.5 km/h 20.9 km/h 84 % 0.0 mm
02:52 17.2 °C 14.7 °C 1003.3 hPa SW 16.1 km/h 20.9 km/h 85 % 0.0 mm
02:57 17.2 °C 14.7 °C 1003.3 hPa SSE 8.0 km/h 25.7 km/h 85 % 0.0 mm
03:02 17.2 °C 14.7 °C 1003.3 hPa SW 17.7 km/h 25.7 km/h 85 % 0.0 mm
03:12 17.1 °C 14.6 °C 1003.3 hPa SW 3.2 km/h 20.9 km/h 85 % 0.0 mm
03:17 17.1 °C 14.7 °C 1003.6 hPa WSW 9.7 km/h 22.5 km/h 86 % 0.0 mm
03:22 17.1 °C 14.7 °C 1003.3 hPa SW 14.5 km/h 22.5 km/h 86 % 0.0 mm
03:32 17.0 °C 14.6 °C 1003.3 hPa SSW 9.7 km/h 20.9 km/h 86 % 0.0 mm
03:37 16.9 °C 14.5 °C 1003.3 hPa WSW 6.4 km/h 20.9 km/h 86 % 0.0 mm
03:42 16.9 °C 14.5 °C 1002.9 hPa SW 9.7 km/h 17.7 km/h 86 % 0.0 mm
03:47 16.9 °C 14.7 °C 1002.9 hPa WSW 8.0 km/h 17.7 km/h 87 % 0.0 mm
03:52 16.9 °C 14.7 °C 1003.3 hPa SW 8.0 km/h 17.7 km/h 87 % 0.0 mm
03:57 16.8 °C 14.6 °C 1003.3 hPa SW 6.4 km/h 17.7 km/h 87 % 0.0 mm
04:02 16.8 °C 14.6 °C 1003.3 hPa WSW 12.9 km/h 17.7 km/h 87 % 0.0 mm
04:12 16.7 °C 14.7 °C 1003.3 hPa WSW 12.9 km/h 17.7 km/h 88 % 0.0 mm
04:17 16.6 °C 14.6 °C 1003.3 hPa WSW 14.5 km/h 19.3 km/h 88 % 0.0 mm
04:22 16.6 °C 14.6 °C 1003.3 hPa SSE 8.0 km/h 19.3 km/h 88 % 0.0 mm
04:27 16.5 °C 14.5 °C 1003.3 hPa SW 14.5 km/h 19.3 km/h 88 % 0.0 mm
04:32 16.4 °C 14.4 °C 1002.9 hPa SW 8.0 km/h 17.7 km/h 88 % 0.0 mm
04:37 16.3 °C 14.5 °C 1002.9 hPa WSW 9.7 km/h 22.5 km/h 89 % 0.0 mm
04:42 16.2 °C 14.4 °C 1002.9 hPa South 8.0 km/h 22.5 km/h 89 % 0.0 mm
04:47 16.2 °C 14.4 °C 1002.9 hPa SSW 11.3 km/h 22.5 km/h 89 % 0.0 mm
04:52 16.2 °C 14.4 °C 1002.9 hPa SW 9.7 km/h 22.5 km/h 89 % 0.0 mm
04:57 16.1 °C 14.3 °C 1002.9 hPa West 8.0 km/h 22.5 km/h 89 % 0.0 mm
05:02 16.1 °C 14.3 °C 1003.3 hPa SW 14.5 km/h 19.3 km/h 89 % 0.0 mm
05:12 16.1 °C 14.5 °C 1003.3 hPa SSW 14.5 km/h 19.3 km/h 90 % 0.0 mm
05:17 16.0 °C 14.4 °C 1003.3 hPa SW 8.0 km/h 19.3 km/h 90 % 0.0 mm
05:22 15.9 °C 14.3 °C 1003.3 hPa SW 12.9 km/h 20.9 km/h 90 % 0.0 mm
05:32 15.9 °C 14.3 °C 1003.3 hPa SW 12.9 km/h 22.5 km/h 90 % 0.0 mm
05:42 15.9 °C 14.3 °C 1003.3 hPa SW 4.8 km/h 22.5 km/h 90 % 0.0 mm
05:47 15.9 °C 14.3 °C 1003.3 hPa WSW 4.8 km/h 22.5 km/h 90 % 0.0 mm
05:52 15.9 °C 14.3 °C 1003.3 hPa SW 8.0 km/h 22.5 km/h 90 % 0.0 mm
05:57 15.9 °C 14.3 °C 1003.3 hPa WSW 12.9 km/h 22.5 km/h 90 % 0.0 mm
06:02 16.0 °C 14.4 °C 1003.3 hPa SSW 9.7 km/h 19.3 km/h 90 % 0.0 mm
06:12 16.1 °C 14.5 °C 1003.3 hPa SW 16.1 km/h 19.3 km/h 90 % 0.0 mm
06:17 16.1 °C 14.5 °C 1003.3 hPa SSW 14.5 km/h 19.3 km/h 90 % 0.0 mm
06:22 16.1 °C 14.5 °C 1003.3 hPa SW 9.7 km/h 20.9 km/h 90 % 0.0 mm
06:32 16.2 °C 14.6 °C 1003.3 hPa SW 12.9 km/h 20.9 km/h 90 % 0.0 mm
06:37 16.2 °C 14.6 °C 1002.9 hPa SSW 12.9 km/h 20.9 km/h 90 % 0.0 mm
06:42 16.2 °C 14.4 °C 1002.9 hPa SW 14.5 km/h 20.9 km/h 89 % 0.0 mm
06:47 16.2 °C 14.4 °C 1002.9 hPa SSW 6.4 km/h 20.9 km/h 89 % 0.0 mm
06:52 16.2 °C 14.4 °C 1002.9 hPa SSW 12.9 km/h 22.5 km/h 89 % 0.0 mm
07:02 16.2 °C 14.6 °C 1002.9 hPa SW 9.7 km/h 22.5 km/h 90 % 0.0 mm
07:07 16.1 °C 14.5 °C 1002.9 hPa SSW 8.0 km/h 22.5 km/h 90 % 0.0 mm
07:12 16.0 °C 14.5 °C 1002.9 hPa SW 6.4 km/h 24.1 km/h 91 % 0.0 mm
07:17 15.9 °C 14.6 °C 1002.9 hPa SSW 8.0 km/h 24.1 km/h 92 % 0.0 mm
07:22 15.8 °C 14.5 °C 1002.9 hPa SW 4.8 km/h 17.7 km/h 92 % 0.0 mm
07:32 15.8 °C 14.5 °C 1002.9 hPa SW 12.9 km/h 17.7 km/h 92 % 0.0 mm
07:42 15.8 °C 14.7 °C 1002.9 hPa SSW 11.3 km/h 14.5 km/h 93 % 0.0 mm
07:47 15.9 °C 14.6 °C 1002.9 hPa WSW 9.7 km/h 14.5 km/h 92 % 0.0 mm
07:52 15.9 °C 14.6 °C 1002.9 hPa WSW 8.0 km/h 17.7 km/h 92 % 0.0 mm
07:57 16.0 °C 14.7 °C 1002.9 hPa SSW 8.0 km/h 17.7 km/h 92 % 0.0 mm
08:02 16.1 °C 14.8 °C 1002.9 hPa SW 14.5 km/h 14.5 km/h 92 % 0.0 mm
08:12 16.2 °C 14.7 °C 1002.9 hPa SSW 12.9 km/h 14.5 km/h 91 % 0.0 mm
08:17 16.4 °C 14.9 °C 1002.9 hPa SSW 6.4 km/h 14.5 km/h 91 % 0.0 mm
08:22 16.6 °C 15.0 °C 1002.6 hPa SSE 9.7 km/h 19.3 km/h 90 % 0.0 mm
08:27 16.7 °C 14.9 °C 1002.6 hPa SW 11.3 km/h 19.3 km/h 89 % 0.0 mm
08:32 16.8 °C 15.0 °C 1002.6 hPa WSW 11.3 km/h 19.3 km/h 89 % 0.0 mm
08:42 17.1 °C 15.1 °C 1002.6 hPa SW 8.0 km/h 19.3 km/h 88 % 0.0 mm
08:52 17.2 °C 15.0 °C 1002.6 hPa SW 11.3 km/h 19.3 km/h 87 % 0.0 mm
08:57 17.2 °C 14.8 °C 1002.6 hPa SW 12.9 km/h 19.3 km/h 86 % 0.0 mm
09:02 17.2 °C 14.8 °C 1002.6 hPa South 11.3 km/h 20.9 km/h 86 % 0.0 mm
09:12 17.3 °C 14.8 °C 1002.6 hPa WSW 14.5 km/h 20.9 km/h 85 % 0.0 mm
09:17 17.6 °C 14.9 °C 1002.6 hPa SSW 11.3 km/h 20.9 km/h 84 % 0.0 mm
09:22 17.9 °C 15.0 °C 1002.6 hPa SW 8.0 km/h 24.1 km/h 83 % 0.0 mm
09:27 17.9 °C 14.8 °C 1002.6 hPa WSW 12.9 km/h 24.1 km/h 82 % 0.0 mm
09:32 18.1 °C 15.0 °C 1002.6 hPa South 14.5 km/h 24.1 km/h 82 % 0.0 mm
09:37 18.3 °C 15.4 °C 1002.6 hPa WSW 4.8 km/h 24.1 km/h 83 % 0.0 mm
09:42 18.6 °C 15.1 °C 1002.3 hPa WSW 14.5 km/h 24.1 km/h 80 % 0.0 mm
09:47 18.6 °C 15.3 °C 1002.6 hPa WSW 3.2 km/h 24.1 km/h 81 % 0.0 mm
09:57 18.7 °C 14.8 °C 1002.3 hPa SW 16.1 km/h 20.9 km/h 78 % 0.0 mm
10:02 18.8 °C 14.9 °C 1002.3 hPa WSW 14.5 km/h 20.9 km/h 78 % 0.0 mm
10:12 18.7 °C 14.6 °C 1002.3 hPa WSW 14.5 km/h 22.5 km/h 77 % 0.0 mm
10:17 18.7 °C 14.8 °C 1002.3 hPa WSW 3.2 km/h 22.5 km/h 78 % 0.0 mm
10:22 18.7 °C 15.0 °C 1002.3 hPa SW 1.6 km/h 20.9 km/h 79 % 0.0 mm
10:32 19.2 °C 15.1 °C 1001.9 hPa SW 8.0 km/h 20.9 km/h 77 % 0.0 mm
10:37 19.2 °C 14.7 °C 1002.3 hPa SSW 9.7 km/h 20.9 km/h 75 % 0.0 mm
10:42 19.0 °C 14.5 °C 1002.3 hPa SW 12.9 km/h 20.9 km/h 75 % 0.0 mm
10:47 18.9 °C 15.0 °C 1002.3 hPa South 11.3 km/h 20.9 km/h 78 % 0.0 mm
10:52 19.0 °C 15.3 °C 1001.9 hPa SSE 12.9 km/h 22.5 km/h 79 % 0.0 mm
11:02 19.1 °C 15.0 °C 1001.9 hPa SSE 4.8 km/h 17.7 km/h 77 % 0.0 mm
11:12 19.1 °C 15.0 °C 1001.9 hPa SW 9.7 km/h 17.7 km/h 77 % 0.0 mm
11:17 19.3 °C 15.0 °C 1001.6 hPa SSW 11.3 km/h 17.7 km/h 76 % 0.0 mm
11:22 19.6 °C 15.0 °C 1001.6 hPa South 9.7 km/h 17.7 km/h 75 % 0.0 mm
11:27 19.6 °C 15.0 °C 1001.6 hPa SW 8.0 km/h 17.7 km/h 75 % 0.0 mm
11:32 19.8 °C 15.2 °C 1001.6 hPa SSW 8.0 km/h 17.7 km/h 75 % 0.0 mm
11:42 19.6 °C 14.6 °C 1001.6 hPa SW 11.3 km/h 19.3 km/h 73 % 0.0 mm
11:52 19.3 °C 14.8 °C 1001.6 hPa SSW 12.9 km/h 22.5 km/h 75 % 0.0 mm
11:57 19.2 °C 15.3 °C 1001.6 hPa South 4.8 km/h 22.5 km/h 78 % 0.0 mm
12:02 18.8 °C 15.5 °C 1001.6 hPa SW 6.4 km/h 22.5 km/h 81 % 0.0 mm
12:12 18.7 °C 15.9 °C 1001.6 hPa South 8.0 km/h 17.7 km/h 84 % 0.0 mm
12:17 18.7 °C 15.6 °C 1001.2 hPa SSW 16.1 km/h 17.7 km/h 82 % 0.0 mm
12:22 18.9 °C 15.9 °C 1001.2 hPa WSW 12.9 km/h 19.3 km/h 83 % 0.0 mm
12:32 19.3 °C 16.0 °C 1001.2 hPa SW 17.7 km/h 19.3 km/h 81 % 0.0 mm
12:37 19.1 °C 16.1 °C 1001.2 hPa SSW 14.5 km/h 25.7 km/h 83 % 0.0 mm
12:42 18.9 °C 15.8 °C 1001.2 hPa SSW 14.5 km/h 25.7 km/h 82 % 0.0 mm
12:47 18.9 °C 15.8 °C 1001.2 hPa SW 19.3 km/h 25.7 km/h 82 % 0.0 mm
12:57 19.3 °C 15.8 °C 1001.2 hPa SW 12.9 km/h 27.4 km/h 80 % 0.0 mm
13:02 19.3 °C 15.6 °C 1001.2 hPa South 14.5 km/h 27.4 km/h 79 % 0.0 mm
13:07 19.4 °C 15.1 °C 1001.2 hPa SW 6.4 km/h 27.4 km/h 76 % 0.0 mm
13:12 19.4 °C 15.1 °C 1001.2 hPa SSW 19.3 km/h 29.0 km/h 76 % 0.0 mm
13:22 18.4 °C 15.1 °C 1001.2 hPa WSW 19.3 km/h 32.2 km/h 81 % 0.0 mm
13:27 17.8 °C 15.4 °C 1001.2 hPa SW 8.0 km/h 32.2 km/h 86 % 0.0 mm
13:32 17.4 °C 15.4 °C 1001.2 hPa South 6.4 km/h 29.0 km/h 88 % 0.5 mm
13:42 17.3 °C 15.6 °C 1001.2 hPa SW 6.4 km/h 20.9 km/h 90 % 0.5 mm
13:52 17.6 °C 15.9 °C 1001.2 hPa SW 8.0 km/h 19.3 km/h 90 % 0.5 mm
13:57 17.7 °C 15.9 °C 1000.9 hPa SW 12.9 km/h 19.3 km/h 89 % 0.5 mm
14:02 18.1 °C 16.3 °C 1000.9 hPa WSW 11.3 km/h 24.1 km/h 89 % 0.5 mm
14:12 18.3 °C 15.9 °C 1000.9 hPa WSW 4.8 km/h 24.1 km/h 86 % 0.5 mm
14:17 18.3 °C 15.9 °C 1000.9 hPa WSW 11.3 km/h 24.1 km/h 86 % 0.5 mm
14:22 18.1 °C 16.1 °C 1000.9 hPa WNW 3.2 km/h 22.5 km/h 88 % 0.8 mm
14:32 17.8 °C 15.8 °C 1000.9 hPa WSW 8.0 km/h 20.9 km/h 88 % 0.5 mm
14:42 18.3 °C 15.5 °C 1000.9 hPa West 6.4 km/h 16.1 km/h 84 % 0.5 mm
14:52 19.1 °C 15.4 °C 1000.6 hPa West 11.3 km/h 22.5 km/h 79 % 0.5 mm
14:57 19.4 °C 15.7 °C 1000.6 hPa West 9.7 km/h 22.5 km/h 79 % 0.5 mm
15:02 19.8 °C 15.9 °C 1000.6 hPa West 6.4 km/h 22.5 km/h 78 % 0.5 mm
15:12 19.7 °C 14.9 °C 1000.6 hPa West 8.0 km/h 20.9 km/h 74 % 0.5 mm
15:17 19.6 °C 15.0 °C 1000.6 hPa WSW 9.7 km/h 19.3 km/h 75 % 0.5 mm
15:22 19.6 °C 15.3 °C 1000.6 hPa West 11.3 km/h 25.7 km/h 76 % 0.5 mm
15:27 19.6 °C 15.5 °C 1000.6 hPa West 6.4 km/h 25.7 km/h 77 % 0.0 mm
15:32 19.7 °C 15.8 °C 1000.6 hPa WNW 4.8 km/h 24.1 km/h 78 % 0.0 mm
15:37 19.9 °C 15.5 °C 1000.6 hPa West 8.0 km/h 19.3 km/h 76 % 0.0 mm
15:42 20.0 °C 15.6 °C 1000.6 hPa WSW 9.7 km/h 19.3 km/h 76 % 0.0 mm
15:47 20.1 °C 15.5 °C 1000.2 hPa WSW 8.0 km/h 17.7 km/h 75 % 0.0 mm
15:52 20.0 °C 15.0 °C 1000.6 hPa SW 4.8 km/h 14.5 km/h 73 % 0.0 mm
15:57 19.8 °C 15.9 °C 1000.6 hPa SSW 6.4 km/h 19.3 km/h 78 % 0.3 mm
16:02 19.5 °C 16.3 °C 1000.2 hPa SW 6.4 km/h 19.3 km/h 82 % 0.3 mm
16:12 19.8 °C 16.4 °C 1000.2 hPa WSW 1.6 km/h 19.3 km/h 81 % 0.3 mm
16:17 20.0 °C 16.0 °C 1000.2 hPa WSW 6.4 km/h 11.3 km/h 78 % 0.3 mm
16:22 20.3 °C 15.9 °C 1000.2 hPa West 4.8 km/h 11.3 km/h 76 % 0.3 mm
16:27 20.8 °C 16.2 °C 1000.2 hPa SSE 16.1 km/h 16.1 km/h 75 % 0.3 mm
16:32 21.2 °C 15.3 °C 1000.2 hPa WSW 4.8 km/h 14.5 km/h 69 % 0.3 mm
16:42 21.1 °C 14.0 °C 1000.2 hPa WSW 12.9 km/h 20.9 km/h 64 % 0.3 mm
16:47 21.6 °C 14.5 °C 999.9 hPa SW 19.3 km/h 27.4 km/h 64 % 0.3 mm
16:52 21.7 °C 14.1 °C 999.9 hPa WSW 19.3 km/h 27.4 km/h 62 % 0.3 mm
16:57 21.9 °C 14.5 °C 999.5 hPa SSW 9.7 km/h 24.1 km/h 63 % 0.0 mm
17:02 22.2 °C 13.5 °C 999.5 hPa WSW 8.0 km/h 22.5 km/h 58 % 0.0 mm
17:12 22.6 °C 13.4 °C 999.5 hPa WSW 17.7 km/h 24.1 km/h 56 % 0.0 mm
17:17 22.3 °C 12.8 °C 999.5 hPa WSW 17.7 km/h 25.7 km/h 55 % 0.0 mm
17:22 22.3 °C 13.6 °C 999.5 hPa SSW 8.0 km/h 27.4 km/h 58 % 0.0 mm
17:27 22.4 °C 13.2 °C 999.5 hPa South 12.9 km/h 27.4 km/h 56 % 0.0 mm
17:32 22.5 °C 13.3 °C 999.2 hPa West 11.3 km/h 27.4 km/h 56 % 0.0 mm
17:37 22.6 °C 13.6 °C 999.5 hPa West 6.4 km/h 27.4 km/h 57 % 0.0 mm
17:42 22.8 °C 13.3 °C 999.2 hPa SW 19.3 km/h 27.4 km/h 55 % 0.0 mm
17:47 22.7 °C 13.2 °C 999.2 hPa WSW 20.9 km/h 24.1 km/h 55 % 0.0 mm
17:52 22.8 °C 13.6 °C 999.2 hPa SW 4.8 km/h 24.1 km/h 56 % 0.0 mm
17:57 22.7 °C 12.9 °C 999.2 hPa SSW 14.5 km/h 25.7 km/h 54 % 0.0 mm
18:02 22.3 °C 12.8 °C 998.9 hPa West 8.0 km/h 25.7 km/h 55 % 0.0 mm
18:12 22.3 °C 13.1 °C 999.2 hPa West 9.7 km/h 22.5 km/h 56 % 0.0 mm
18:17 22.2 °C 13.5 °C 999.2 hPa SW 12.9 km/h 20.9 km/h 58 % 0.0 mm
18:22 21.9 °C 13.5 °C 999.2 hPa SW 11.3 km/h 20.9 km/h 59 % 0.0 mm
18:27 21.7 °C 13.3 °C 999.2 hPa West 17.7 km/h 32.2 km/h 59 % 0.0 mm
18:32 21.5 °C 13.4 °C 999.2 hPa WSW 19.3 km/h 32.2 km/h 60 % 0.0 mm
18:37 21.4 °C 13.6 °C 999.2 hPa WSW 20.9 km/h 40.2 km/h 61 % 0.0 mm
18:42 21.4 °C 13.3 °C 999.2 hPa West 9.7 km/h 40.2 km/h 60 % 0.0 mm
18:47 21.6 °C 13.0 °C 999.2 hPa WSW 16.1 km/h 40.2 km/h 58 % 0.0 mm
18:52 21.7 °C 13.3 °C 999.2 hPa SW 30.6 km/h 40.2 km/h 59 % 0.0 mm
18:57 21.6 °C 13.0 °C 999.2 hPa SSW 14.5 km/h 33.8 km/h 58 % 0.0 mm
19:02 21.6 °C 13.0 °C 999.2 hPa WSW 17.7 km/h 33.8 km/h 58 % 0.0 mm
19:12 21.4 °C 12.8 °C 999.2 hPa SW 9.7 km/h 33.8 km/h 58 % 0.0 mm
19:22 21.3 °C 13.2 °C 999.2 hPa West 16.1 km/h 30.6 km/h 60 % 0.0 mm
19:32 21.3 °C 13.7 °C 999.2 hPa SW 16.1 km/h 33.8 km/h 62 % 0.0 mm
19:37 21.3 °C 14.2 °C 999.5 hPa West 11.3 km/h 33.8 km/h 64 % 0.0 mm
19:42 21.2 °C 14.1 °C 999.5 hPa WSW 16.1 km/h 30.6 km/h 64 % 0.0 mm
19:52 20.4 °C 14.1 °C 999.5 hPa SW 11.3 km/h 29.0 km/h 67 % 0.0 mm
19:57 20.2 °C 13.9 °C 999.5 hPa WSW 11.3 km/h 25.7 km/h 67 % 0.0 mm
20:02 20.1 °C 14.0 °C 999.5 hPa SSW 8.0 km/h 25.7 km/h 68 % 0.0 mm
20:12 20.3 °C 14.0 °C 999.5 hPa WSW 11.3 km/h 24.1 km/h 67 % 0.0 mm
20:17 20.2 °C 14.1 °C 999.5 hPa West 19.3 km/h 19.3 km/h 68 % 0.0 mm
20:27 19.9 °C 14.0 °C 999.5 hPa West 8.0 km/h 25.7 km/h 69 % 0.0 mm
20:32 19.8 °C 13.9 °C 999.5 hPa SW 25.7 km/h 25.7 km/h 69 % 0.0 mm
20:37 19.7 °C 13.9 °C 999.5 hPa SW 6.4 km/h 22.5 km/h 69 % 0.0 mm
20:42 19.8 °C 13.7 °C 999.5 hPa West 6.4 km/h 25.7 km/h 68 % 0.0 mm
20:47 20.0 °C 13.7 °C 999.5 hPa WSW 6.4 km/h 25.7 km/h 67 % 0.0 mm
20:52 20.0 °C 13.5 °C 999.5 hPa SW 19.3 km/h 25.7 km/h 66 % 0.0 mm
20:57 19.7 °C 12.7 °C 999.5 hPa South 17.7 km/h 22.5 km/h 64 % 0.0 mm
21:02 19.5 °C 12.3 °C 999.9 hPa WSW 20.9 km/h 22.5 km/h 63 % 0.0 mm
21:12 19.1 °C 12.4 °C 999.9 hPa SSW 16.1 km/h 22.5 km/h 65 % 0.0 mm
21:17 18.8 °C 12.3 °C 999.5 hPa West 11.3 km/h 24.1 km/h 66 % 0.0 mm
21:22 18.7 °C 12.4 °C 999.9 hPa SW 6.4 km/h 24.1 km/h 67 % 0.0 mm
21:27 18.6 °C 12.6 °C 999.9 hPa SSW 22.5 km/h 22.5 km/h 68 % 0.0 mm
21:37 18.3 °C 12.7 °C 999.9 hPa SW 11.3 km/h 22.5 km/h 70 % 0.0 mm
21:42 18.2 °C 12.6 °C 999.9 hPa SW 9.7 km/h 22.5 km/h 70 % 0.0 mm
21:47 18.1 °C 12.8 °C 999.9 hPa SW 4.8 km/h 17.7 km/h 71 % 0.0 mm
21:52 17.8 °C 12.7 °C 1000.2 hPa SW 8.0 km/h 17.7 km/h 72 % 0.0 mm
21:57 17.7 °C 12.8 °C 1000.2 hPa SW 11.3 km/h 17.7 km/h 73 % 0.0 mm
22:02 17.5 °C 12.8 °C 1000.2 hPa SW 6.4 km/h 16.1 km/h 74 % 0.0 mm
22:12 17.4 °C 12.9 °C 1000.2 hPa SW 4.8 km/h 16.1 km/h 75 % 0.0 mm
22:17 17.3 °C 12.8 °C 1000.2 hPa SW 4.8 km/h 16.1 km/h 75 % 0.0 mm
22:22 17.2 °C 12.9 °C 1000.2 hPa SW 3.2 km/h 16.1 km/h 76 % 0.0 mm
22:32 16.8 °C 12.7 °C 1000.6 hPa SW 6.4 km/h 12.9 km/h 77 % 0.0 mm
22:37 16.7 °C 12.8 °C 1000.6 hPa SW 9.7 km/h 9.7 km/h 78 % 0.0 mm
22:47 16.7 °C 12.8 °C 1000.6 hPa SW 4.8 km/h 11.3 km/h 78 % 0.0 mm
22:52 16.5 °C 12.8 °C 1000.9 hPa SSW 1.6 km/h 11.3 km/h 79 % 0.0 mm
23:02 15.9 °C 12.6 °C 1000.9 hPa SSW 1.6 km/h 9.7 km/h 81 % 0.0 mm
23:12 15.8 °C 12.9 °C 1000.9 hPa SSW 1.6 km/h 4.8 km/h 83 % 0.0 mm
23:17 15.7 °C 12.8 °C 1000.9 hPa SW 3.2 km/h 6.4 km/h 83 % 0.0 mm
23:22 15.6 °C 12.9 °C 1000.9 hPa SW 1.6 km/h 6.4 km/h 84 % 0.0 mm
23:27 15.7 °C 13.0 °C 1000.9 hPa SW 1.6 km/h 4.8 km/h 84 % 0.0 mm
23:32 15.7 °C 13.0 °C 1000.9 hPa SW 3.2 km/h 4.8 km/h 84 % 0.0 mm
23:37 15.7 °C 12.8 °C 1000.9 hPa SSW 1.6 km/h 3.2 km/h 83 % 0.0 mm
23:42 15.7 °C 13.0 °C 1000.9 hPa SW 3.2 km/h 4.8 km/h 84 % 0.0 mm
23:47 15.6 °C 12.9 °C 1000.9 hPa SW 3.2 km/h 6.4 km/h 84 % 0.0 mm
23:52 15.4 °C 12.9 °C 1000.9 hPa SSW 1.6 km/h 6.4 km/h 85 % 0.0 mm
Meteo18
Compliments of Weather Underground - 4 mb

Script developed by  Jim McMurry - jmcmurry@mwt.net Adapted for the template by  Wim van der Kuil - Leuven-Template.eu

You find our weather info also at:

European Weather Network

Weather Underground

Equipment we use:

Weather-station
Davis Vue

Weather-program
Meteohub

Weather-server
Raspberry PI 2 B+

Provider
1 and 1

Davis Vue

Meteohub

Raspberry PI 2 B+

1 and 1